Total_Precipitation_Accumulation
0.00 0.00 0.00 0.00 0.00 0.03 0.03 0.02 0.21 0.04 0.04 0.10 0.03 0.01 0.06 0.00 0.00 0.03 0.01 0.00 0.02 0.03 0.06 0.05 0.02 0.03 0.23 0.79 0.16 0.18 0.11 0.29 0.32 0.51 1.77 0.44 1.09 1.87 0.71 0.27 0.72 0.39 0.24 0.21 0.10 0.12 0.11 0.11 0.03 0.08 0.03 0.03 0.02 0.01 0.01 0.01 0.01 0.00 0.00 0.01 0.01 0.02 0.01 0.02 0.03 0.04 0.04 0.03 0.04 0.04 0.05 0.09 0.06 0.06 0.08 0.07 0.05 0.05 0.06 0.11 0.10 0.16 0.17 0.19 0.17 0.22 0.18 0.12 0.09 0.09 0.07 0.09 0.12 0.10 0.10 0.11 0.09
0.00 0.00 0.00 0.00 0.00 0.03 0.08 0.04 0.12 0.08 0.04 0.03 0.02 0.01 0.02 0.02 0.00 0.04 0.05 0.07 0.10 0.12 0.02 0.04 0.07 0.06 0.04 0.18 0.07 0.11 0.15 0.15 0.18 0.29 0.50 0.86 0.85 0.98 0.99 1.00 0.44 0.35 0.28 0.25 0.16 0.08 0.14 0.16 0.05 0.05 0.03 0.03 0.02 0.01 0.02 0.01 0.00 0.01 0.01 0.01 0.02 0.04 0.09 0.03 0.03 0.04 0.03 0.03 0.05 0.06 0.07 0.07 0.08 0.08 0.12 0.06 0.04 0.04 0.05 0.07 0.15 0.16 0.16 0.15 0.14 0.19 0.11 0.13 0.11 0.10 0.09 0.10 0.09 0.14 0.12 0.11 0.14
0.00 0.00 0.00 0.00 0.00 0.01 0.00 0.00 0.05 0.04 0.16 0.09 0.04 0.03 0.01 0.04 0.02 0.02 0.04 0.07 0.08 0.06 0.02 0.02 0.02 0.10 0.14 0.14 0.18 0.13 1.89 0.31 0.25 0.43 0.51 0.70 0.92 1.17 1.30 1.01 1.46 0.47 0.40 0.33 0.17 0.12 0.13 0.14 0.05 0.07 0.05 0.03 0.02 0.01 0.02 0.01 0.01 0.01 0.01 0.03 0.02 0.03 0.03 0.05 0.04 0.03 0.05 0.05 0.07 0.08 0.09 0.11 0.09 0.10 0.12 0.05 0.06 0.04 0.03 0.09 0.08 0.11 0.18 0.16 0.12 0.19 0.12 0.05 0.09 0.08 0.11 0.15 0.13 0.14 0.15 0.13 0.11
0.00 0.00 0.00 0.00 0.01 0.00 0.02 0.04 0.01 0.04 0.06 0.11 0.26 0.06 0.11 0.07 0.07 0.04 0.07 0.02 0.07 0.01 0.05 0.10 0.16 0.08 0.20 0.29 0.52 0.09 0.27 0.49 0.44 0.43 0.93 0.91 0.99 1.26 1.41 1.98 1.80 0.87 0.53 0.28 0.17 0.15 0.13 0.21 0.06 0.06 0.06 0.03 0.03 0.02 0.02 0.02 0.02 0.01 0.01 0.04 0.03 0.02 0.03 0.02 0.05 0.05 0.06 0.08 0.10 0.08 0.08 0.08 0.14 0.10 0.06 0.05 0.04 0.08 0.05 0.06 0.11 0.08 0.07 0.09 0.11 0.14 0.13 0.12 0.11 0.12 0.15 0.09 0.10 0.15 0.10 0.06 0.06
0.00 0.00 0.00 0.00 0.00 0.04 0.00 0.01 0.04 0.06 0.02 0.04 0.34 0.09 0.03 0.02 0.10 0.01 0.03 0.03 0.03 0.02 0.01 0.04 0.14 0.03 0.06 0.23 0.25 0.51 0.89 0.28 0.34 0.49 0.49 0.73 0.84 0.93 2.11 1.69 1.14 0.86 0.28 0.31 0.19 0.11 0.14 0.08 0.06 0.06 0.06 0.04 0.02 0.02 0.02 0.02 0.02 0.01 0.02 0.02 0.02 0.03 0.03 0.04 0.06 0.06 0.07 0.06 0.09 0.10 0.10 0.12 0.16 0.13 0.07 0.07 0.03 0.08 0.03 0.04 0.07 0.10 0.10 0.03 0.05 0.05 0.07 0.06 0.06 0.07 0.06 0.07 0.07 0.07 0.04 0.03 0.04
0.00 0.00 0.00 0.00 0.01 0.00 0.01 0.02 0.04 0.01 0.00 0.00 0.02 0.19 0.03 0.04 0.03 0.03 0.09 0.03 0.03 0.02 0.03 0.01 0.23 0.13 0.31 0.38 0.24 0.35 0.25 0.55 0.71 0.45 0.64 0.67 0.78 1.23 1.73 1.86 1.22 0.99 0.31 0.24 0.18 0.16 0.26 0.08 0.07 0.05 0.07 0.07 0.03 0.02 0.02 0.03 0.02 0.02 0.01 0.03 0.03 0.03 0.03 0.03 0.05 0.05 0.06 0.09 0.10 0.10 0.13 0.11 0.11 0.12 0.08 0.13 0.06 0.05 0.07 0.02 0.06 0.04 0.06 0.07 0.04 0.06 0.03 0.02 0.03 0.03 0.10 0.08 0.05 0.04 0.03 0.03 0.03
0.00 0.00 0.00 0.00 0.00 0.00 0.01 0.01 0.02 0.01 0.01 0.00 0.01 0.09 0.04 0.05 0.04 0.07 0.04 0.10 0.03 0.05 0.02 0.02 0.04 0.06 0.24 0.13 0.18 0.22 0.16 0.56 0.55 0.55 0.77 0.81 1.32 1.62 1.86 1.29 1.29 0.52 0.84 0.27 0.23 0.23 0.15 0.07 0.04 0.06 0.07 0.06 0.13 0.05 0.03 0.04 0.04 0.02 0.03 0.03 0.05 0.05 0.04 0.05 0.04 0.06 0.10 0.08 0.06 0.10 0.12 0.13 0.14 0.12 0.10 0.14 0.07 0.05 0.08 0.03 0.02 0.03 0.05 0.04 0.03 0.07 0.03 0.04 0.02 0.03 0.03 0.11 0.02 0.03 0.02 0.01 0.01
0.00 0.00 0.00 0.02 0.00 0.00 0.00 0.02 0.01 0.00 0.01 0.00 0.01 0.00 0.02 0.02 0.00 0.03 0.04 0.01 0.16 0.05 0.08 0.05 0.11 0.09 1.07 0.09 1.03 0.23 0.31 0.54 1.01 0.42 0.83 1.18 1.22 2.71 2.45 1.51 1.24 0.64 1.28 0.43 0.28 0.17 0.37 0.05 0.05 0.02 0.04 0.05 0.19 0.18 0.11 0.08 0.06 0.03 0.03 0.05 0.05 0.06 0.08 0.06 0.06 0.07 0.06 0.08 0.12 0.11 0.21 0.14 0.10 0.13 0.14 0.18 0.20 0.07 0.07 0.03 0.04 0.07 0.04 0.03 0.03 0.06 0.06 0.03 0.03 0.03 0.03 0.04 0.02 0.01 0.01 0.01 0.00
0.00 0.00 0.00 0.00 0.00 0.00 0.00 0.00 0.00 0.00 0.00 0.00 0.01 0.00 0.02 0.04 0.01 0.01 0.02 0.01 0.03 0.02 0.06 0.04 0.06 0.18 0.56 0.33 0.48 0.64 0.66 0.71 0.85 0.40 0.57 1.39 1.74 2.95 2.82 2.35 1.40 0.94 1.32 1.06 0.39 0.20 0.17 0.10 0.06 0.03 0.04 0.06 0.07 0.17 0.13 0.16 0.08 0.05 0.05 0.06 0.07 0.12 0.13 0.09 0.10 0.08 0.10 0.06 0.07 0.14 0.26 0.13 0.09 0.09 0.06 0.09 0.15 0.09 0.05 0.09 0.07 0.06 0.05 0.03 0.05 0.06 0.02 0.03 0.04 0.07 0.06 0.03 0.02 0.02 0.01 0.00 0.00
0.00 0.00 0.00 0.00 0.00 0.05 0.01 0.01 0.00 0.00 0.00 0.00 0.01 0.00 0.00 0.00 0.01 0.02 0.05 0.04 0.02 0.03 0.07 0.04 0.02 0.26 0.17 0.63 0.46 0.72 0.91 1.10 0.71 0.96 0.60 1.52 2.40 3.15 2.65 1.83 1.47 1.51 1.74 1.87 0.55 0.29 0.16 0.42 0.06 0.05 0.03 0.03 0.06 0.11 0.05 0.03 0.06 0.05 0.06 0.10 0.11 0.08 0.10 0.15 0.06 0.06 0.06 0.09 0.06 0.08 0.13 0.12 0.10 0.08 0.22 0.18 0.26 0.19 0.10 0.08 0.04 0.06 0.04 0.03 0.07 0.10 0.03 0.03 0.08 0.05 0.06 0.09 0.06 0.03 0.01 0.00 0.00
0.00 0.00 0.00 0.02 0.01 0.02 0.01 0.02 0.01 0.00 0.00 0.00 0.00 0.00 0.01 0.00 0.01 0.01 0.00 0.05 0.01 0.08 0.06 0.04 0.09 0.23 0.17 0.57 1.17 0.93 0.99 1.76 1.68 1.08 1.34 1.40 2.62 3.70 3.11 1.80 1.65 1.50 1.50 1.29 0.83 0.48 0.37 0.23 0.49 0.08 0.04 0.05 0.05 0.12 0.13 0.07 0.05 0.04 0.02 0.04 0.05 0.06 0.09 0.08 0.10 0.06 0.06 0.10 0.09 0.12 0.12 0.16 0.12 0.06 0.09 0.18 0.23 0.14 0.09 0.07 0.05 0.07 0.05 0.05 0.04 0.03 0.03 0.04 0.06 0.04 0.11 0.02 0.02 0.02 0.00 0.00 0.00
0.00 0.00 0.00 0.00 0.03 0.00 0.00 0.01 0.00 0.00 0.00 0.00 0.00 0.00 0.00 0.00 0.00 0.01 0.01 0.01 0.02 0.04 0.16 0.02 0.44 0.05 0.29 0.34 0.63 1.07 1.64 1.02 1.97 0.81 1.24 1.29 1.61 2.70 1.81 2.46 1.95 1.50 1.44 1.48 1.06 0.57 0.42 0.30 0.35 0.93 0.11 0.05 0.06 0.09 0.14 0.22 0.14 0.05 0.04 0.04 0.06 0.08 0.11 0.08 0.05 0.08 0.11 0.07 0.07 0.05 0.04 0.08 0.18 0.12 0.07 0.08 0.07 0.06 0.11 0.09 0.10 0.10 0.09 0.04 0.02 0.04 0.03 0.04 0.01 0.01 0.04 0.01 0.00 0.00 0.00 0.00 0.00
0.00 0.00 0.01 0.00 0.02 0.01 0.00 0.00 0.00 0.00 0.00 0.00 0.00 0.00 0.00 0.00 0.00 0.00 0.01 0.00 0.12 0.05 0.22 0.01 0.06 0.06 0.75 0.50 0.50 0.73 1.11 2.41 1.49 1.08 1.42 1.80 1.13 2.31 2.60 2.67 2.41 1.55 1.29 1.74 1.09 0.93 0.30 0.19 0.25 0.45 0.40 0.36 0.09 0.16 0.16 0.37 0.34 0.22 0.25 0.14 0.10 0.09 0.10 0.07 0.06 0.05 0.07 0.14 0.07 0.04 0.10 0.10 0.16 0.08 0.13 0.13 0.07 0.09 0.09 0.04 0.03 0.04 0.10 0.04 0.02 0.01 0.03 0.02 0.03 0.04 0.03 0.01 0.00 0.00 0.00 0.01 0.00
0.00 0.00 0.00 0.03 0.00 0.00 0.00 0.00 0.00 0.00 0.00 0.00 0.00 0.00 0.00 0.00 0.00 0.00 0.00 0.02 0.09 0.06 0.09 0.11 0.08 0.12 0.69 0.69 1.01 0.80 1.67 1.98 1.10 1.19 0.93 1.21 1.72 2.81 2.66 2.63 1.92 2.09 1.53 1.71 1.25 0.77 0.47 0.30 0.27 0.31 0.43 0.39 0.52 0.91 0.65 0.65 0.48 0.22 0.20 0.17 0.16 0.11 0.16 0.10 0.08 0.06 0.08 0.06 0.04 0.04 0.12 0.12 0.10 0.09 0.10 0.05 0.11 0.06 0.02 0.02 0.02 0.05 0.07 0.04 0.02 0.02 0.03 0.03 0.03 0.05 0.05 0.01 0.00 0.00 0.00 0.00 0.01
0.00 0.00 0.00 0.00 0.03 0.00 0.00 0.01 0.00 0.00 0.02 0.00 0.01 0.00 0.00 0.01 0.00 0.00 0.01 0.03 0.09 0.02 0.05 0.00 0.05 0.06 2.54 0.62 1.34 0.75 1.45 1.90 1.44 1.07 0.97 0.75 1.49 2.25 2.42 2.30 2.32 1.95 2.10 2.12 1.97 0.77 0.92 0.68 0.52 0.33 0.40 0.33 0.51 0.80 0.90 1.44 0.54 0.51 0.27 0.25 0.20 0.21 0.29 0.18 0.15 0.10 0.18 0.12 0.09 0.12 0.16 0.14 0.15 0.15 0.12 0.11 0.03 0.01 0.03 0.01 0.06 0.06 0.03 0.03 0.03 0.03 0.02 0.01 0.02 0.01 0.03 0.00 0.00 0.00 0.00 0.00 0.00
0.00 0.00 0.00 0.02 0.01 0.01 0.00 0.00 0.00 0.00 0.03 0.01 0.02 0.01 0.00 0.01 0.01 0.01 0.02 0.07 0.10 0.05 0.01 0.20 0.03 0.55 0.22 0.37 0.30 0.34 1.28 1.03 1.16 1.02 0.85 1.22 1.21 1.24 1.55 2.38 2.38 2.67 2.31 2.29 1.86 0.96 0.87 0.58 0.99 0.52 0.50 0.49 0.53 1.04 1.06 1.00 0.89 0.46 0.53 0.27 0.24 0.37 0.38 0.27 0.34 0.26 0.30 0.28 0.22 0.24 0.22 0.42 0.33 0.45 0.39 0.38 0.08 0.04 0.01 0.10 0.03 0.09 0.07 0.04 0.04 0.03 0.02 0.03 0.02 0.01 0.00 0.00 0.00 0.00 0.00 0.00 0.00
0.00 0.00 0.00 0.00 0.02 0.00 0.01 0.00 0.00 0.03 0.00 0.01 0.00 0.00 0.03 0.00 0.00 0.00 0.01 0.01 0.06 0.04 0.03 0.06 0.09 0.13 0.30 0.42 0.46 0.23 0.40 0.32 0.79 1.03 0.66 1.06 1.23 1.63 1.42 2.07 1.47 2.01 2.19 2.52 1.29 0.96 0.84 0.73 1.10 0.99 0.74 1.04 1.08 0.95 0.98 0.85 0.83 0.68 0.58 0.45 0.51 0.41 0.28 0.34 0.35 0.38 0.31 0.38 0.32 0.32 0.32 0.57 0.62 0.77 0.32 0.55 0.21 0.26 0.03 0.02 0.04 0.06 0.06 0.05 0.03 0.09 0.06 0.03 0.02 0.02 0.00 0.00 0.00 0.00 0.00 0.00 0.00
0.00 0.00 0.00 0.00 0.00 0.00 0.00 0.01 0.01 0.00 0.01 0.05 0.01 0.00 0.00 0.00 0.00 0.03 0.00 0.00 0.07 0.07 0.06 0.08 0.18 0.15 0.39 0.41 0.43 0.55 0.37 0.32 0.77 0.90 1.10 0.87 0.82 1.33 1.36 1.71 1.40 2.03 2.02 2.28 1.64 1.68 1.51 1.71 1.51 0.93 1.00 1.07 1.15 0.98 0.78 0.70 1.24 0.58 0.56 0.86 0.97 0.83 0.47 0.25 0.62 0.54 1.03 0.70 0.43 0.42 0.62 0.80 0.89 1.19 0.63 0.77 0.53 0.30 0.40 0.04 0.07 0.06 0.05 0.03 0.04 0.02 0.02 0.04 0.04 0.02 0.01 0.00 0.00 0.00 0.00 0.07 0.07
0.00 0.00 0.00 0.00 0.00 0.00 0.00 0.00 0.00 0.01 0.00 0.00 0.00 0.00 0.00 0.00 0.03 0.02 0.07 0.03 0.03 0.06 0.12 0.15 0.22 0.29 0.33 0.39 0.44 0.62 0.45 0.65 0.91 0.93 0.90 0.63 1.12 0.96 1.69 1.88 2.50 2.55 2.60 3.32 2.53 2.08 2.52 1.96 2.01 1.20 1.08 1.45 1.63 1.47 0.94 0.95 0.73 0.71 1.24 0.90 0.82 0.75 1.01 0.93 0.55 0.97 1.03 0.85 0.65 0.63 0.88 0.88 0.87 1.52 0.94 0.54 0.99 0.67 0.37 0.11 0.07 0.08 0.07 0.04 0.03 0.01 0.03 0.02 0.06 0.03 0.01 0.00 0.00 0.00 0.18 0.12 0.13
0.00 0.00 0.01 0.00 0.00 0.00 0.00 0.00 0.00 0.00 0.00 0.00 0.00 0.00 0.00 0.01 0.06 0.01 0.05 0.16 0.05 0.08 0.21 0.37 0.29 0.48 0.39 0.56 0.79 0.87 0.53 0.72 0.94 0.84 0.81 0.60 1.16 1.69 1.54 1.66 2.52 1.48 1.87 2.59 2.42 2.12 2.10 2.01 1.92 1.68 1.43 1.67 1.94 1.71 1.64 0.82 0.96 0.93 0.68 0.98 0.70 0.90 0.85 1.04 0.96 1.23 1.30 1.14 1.03 0.84 0.59 1.38 1.74 1.69 1.15 1.22 0.90 0.70 0.55 0.17 0.13 0.12 0.14 0.13 0.08 0.07 0.05 0.03 0.03 0.03 0.02 0.00 0.01 0.09 0.25 0.19 0.21
0.00 0.00 0.00 0.00 0.00 0.00 0.00 0.00 0.00 0.00 0.00 0.00 0.00 0.00 0.00 0.00 0.00 0.02 0.02 0.07 0.04 0.33 0.27 0.18 0.36 0.42 0.49 0.41 0.61 0.64 0.71 0.94 0.85 0.77 0.73 0.66 0.92 1.78 2.52 2.49 2.91 2.70 2.69 3.07 4.03 2.50 2.62 3.16 3.01 2.00 2.31 1.92 1.76 1.50 1.30 0.74 1.18 1.59 1.26 0.89 0.69 0.93 1.02 1.07 1.30 1.35 2.02 1.60 1.19 1.39 1.11 1.53 1.33 0.84 0.83 1.12 0.88 0.85 0.62 0.89 0.53 0.34 0.39 0.29 0.09 0.19 0.18 0.20 0.12 0.16 0.11 0.05 0.24 0.12 0.15 0.08 0.07
0.00 0.00 0.00 0.00 0.00 0.00 0.00 0.00 0.00 0.00 0.00 0.00 0.00 0.00 0.04 0.02 0.00 0.02 0.07 0.10 0.30 0.19 0.26 0.14 0.15 0.49 0.40 0.64 0.48 0.76 1.02 0.91 1.08 0.99 0.93 1.25 1.57 2.51 3.10 2.90 3.76 4.60 2.61 3.52 3.42 3.21 4.28 5.45 4.43 2.22 1.66 1.79 1.53 1.84 1.62 1.24 1.31 1.27 1.58 1.39 1.07 1.10 1.21 0.93 1.80 2.24 2.07 1.57 1.56 1.64 1.70 1.83 1.58 1.00 1.54 0.99 0.73 0.81 0.69 0.76 0.36 0.37 0.23 0.36 0.22 0.23 0.15 0.21 0.17 0.13 0.17 0.13 0.11 0.06 0.10 0.07 0.04
0.00 0.00 0.00 0.00 0.00 0.00 0.00 0.00 0.00 0.00 0.00 0.00 0.00 0.00 0.02 0.01 0.05 0.03 0.10 0.06 0.08 0.09 0.06 0.11 0.16 0.14 0.20 0.44 0.72 0.66 0.62 0.90 1.34 1.06 1.87 2.08 2.22 2.88 3.38 2.28 2.45 2.42 2.06 3.84 4.80 3.95 4.02 3.59 3.78 1.51 1.76 1.51 1.78 2.32 1.88 1.67 1.81 1.63 1.99 1.65 1.43 1.52 1.49 1.31 1.98 2.22 1.75 1.68 1.16 1.61 1.47 1.41 1.21 1.13 1.23 0.95 0.63 0.87 0.59 0.87 0.81 0.59 0.54 0.70 0.27 0.34 0.34 0.16 0.25 0.33 0.16 0.11 0.08 0.09 0.31 0.26 0.27
0.00 0.01 0.00 0.00 0.00 0.00 0.00 0.00 0.00 0.00 0.00 0.00 0.00 0.00 0.00 0.00 0.11 0.03 0.08 0.12 0.12 0.09 0.08 0.09 0.21 0.18 0.19 0.42 0.74 0.72 0.53 0.79 0.97 1.88 2.45 2.76 3.87 5.69 3.30 4.12 2.82 3.69 3.42 3.89 3.20 2.83 3.87 3.16 2.73 2.23 2.00 1.89 1.68 2.10 2.17 2.06 1.60 1.73 1.47 1.49 1.72 1.52 1.10 1.70 1.97 2.27 1.68 1.22 1.71 1.62 1.61 0.91 0.93 0.85 0.90 0.95 1.14 1.08 0.84 0.84 1.17 0.81 0.41 0.36 0.58 0.27 0.42 0.24 0.31 0.19 0.15 0.19 0.19 0.43 0.46 0.24 0.23
0.00 0.00 0.00 0.00 0.00 0.00 0.00 0.00 0.00 0.00 0.00 0.00 0.00 0.00 0.00 0.00 0.04 0.04 0.11 0.09 0.16 0.10 0.05 0.06 0.24 0.35 0.66 0.74 0.78 0.91 0.68 1.45 1.12 1.76 3.14 4.29 6.67 5.98 5.33 5.39 4.64 3.92 6.07 5.10 3.27 3.69 3.81 3.37 2.96 2.73 2.78 1.97 1.67 1.93 1.97 1.70 1.11 1.01 1.48 1.31 1.58 1.22 1.60 1.63 1.51 1.49 1.67 1.69 1.70 1.43 1.61 1.26 1.07 1.01 1.20 1.17 0.98 1.12 1.13 0.73 1.21 1.14 0.99 0.54 0.50 0.36 0.27 0.37 0.18 0.14 0.19 0.33 0.50 0.39 0.46 0.48 0.32
0.00 0.00 0.00 0.00 0.00 0.00 0.00 0.00 0.00 0.00 0.00 0.00 0.00 0.00 0.00 0.01 0.03 0.08 0.07 0.09 0.18 0.10 0.09 0.12 0.29 0.40 0.49 0.75 0.87 0.96 0.98 1.25 1.68 2.54 4.82 6.87 5.76 4.69 6.37 6.04 6.55 4.03 6.79 6.36 5.00 4.02 4.35 5.00 2.65 2.59 2.71 2.65 2.31 2.69 2.15 1.63 1.47 1.11 1.33 1.30 1.22 1.18 1.55 1.32 1.41 1.61 2.02 1.27 1.18 1.24 0.96 1.58 1.31 1.73 1.19 1.45 1.37 1.49 1.45 1.60 1.42 1.26 1.13 0.88 0.76 0.53 0.43 0.37 0.46 0.39 0.34 0.39 0.39 0.72 0.75 0.46 0.31
0.00 0.00 0.00 0.00 0.00 0.00 0.00 0.00 0.00 0.00 0.00 0.00 0.00 0.00 0.01 0.01 0.02 0.23 0.15 0.20 0.13 0.17 0.19 0.17 0.26 0.53 0.89 1.04 1.11 1.13 0.99 1.24 2.41 5.58 6.70 6.50 6.12 5.59 6.44 6.93 6.81 6.03 6.48 5.00 3.66 4.76 6.00 4.11 3.75 3.16 2.86 2.47 2.53 3.00 2.30 2.15 1.49 0.87 1.03 1.25 1.28 1.02 0.91 1.01 1.06 0.95 1.98 1.52 1.25 0.94 1.20 1.62 1.88 1.50 1.78 1.11 1.40 1.11 1.47 2.08 1.40 0.91 1.00 0.85 0.91 0.61 0.74 0.38 0.30 0.72 0.82 0.97 0.86 0.87 0.62 0.46 0.52
0.00 0.00 0.00 0.00 0.00 0.00 0.00 0.00 0.00 0.00 0.00 0.00 0.00 0.00 0.00 0.00 0.00 0.08 0.12 0.09 0.22 0.23 0.15 0.19 0.30 0.53 0.53 0.59 0.97 1.35 1.73 2.15 5.15 5.11 3.20 2.88 3.71 3.93 5.10 5.18 6.81 7.51 4.91 3.85 4.28 3.91 3.67 2.59 2.41 2.46 2.68 2.15 2.18 2.17 2.16 2.13 1.23 1.06 1.07 0.92 1.21 1.33 1.41 1.41 1.09 1.33 1.32 1.24 1.03 1.16 1.35 1.49 1.46 1.99 1.53 1.40 1.32 1.98 1.69 2.53 2.27 1.25 1.06 0.98 0.86 1.00 0.97 0.55 0.76 0.66 0.73 0.82 0.75 0.60 0.47 0.40 0.34
0.00 0.00 0.00 0.00 0.00 0.00 0.00 0.00 0.00 0.00 0.00 0.00 0.00 0.00 0.00 0.01 0.03 0.02 0.02 0.08 0.27 0.18 0.17 0.16 0.27 0.30 0.52 0.56 0.49 0.91 1.01 1.64 3.27 3.03 2.11 2.41 3.87 4.12 5.57 6.04 5.90 4.82 3.83 3.99 3.70 3.49 3.56 3.42 3.26 2.33 1.63 1.68 1.86 2.07 1.85 1.52 1.70 0.97 1.02 1.04 0.91 1.28 0.80 1.30 1.29 1.54 1.16 1.28 1.15 0.97 1.49 1.14 1.69 1.71 2.07 2.10 1.59 2.35 2.83 2.51 1.96 2.09 1.92 1.12 1.39 1.22 1.03 0.76 0.97 0.90 0.80 0.46 0.42 0.55 0.65 0.83 0.80
0.00 0.00 0.00 0.00 0.00 0.00 0.00 0.00 0.00 0.00 0.00 0.00 0.00 0.04 0.00 0.01 0.01 0.02 0.02 0.10 0.12 0.26 0.20 0.15 0.18 0.25 0.31 0.40 0.29 0.66 0.78 2.00 2.31 1.99 2.25 2.56 2.20 2.08 2.97 3.33 2.98 3.67 3.77 4.70 3.96 3.23 2.63 3.75 2.69 3.19 2.37 2.07 2.10 2.33 2.13 2.22 1.45 1.00 0.83 0.88 1.04 0.90 0.67 1.11 1.42 1.37 1.08 0.71 1.03 0.87 1.34 2.63 1.49 1.83 1.72 2.17 1.16 2.30 2.79 1.83 1.61 1.76 2.01 1.43 1.34 1.22 1.02 0.55 0.99 0.94 0.72 0.63 0.70 0.97 0.50 0.60 0.81
0.00 0.00 0.00 0.00 0.00 0.00 0.00 0.00 0.00 0.00 0.00 0.00 0.00 0.00 0.01 0.01 0.03 0.07 0.04 0.04 0.07 0.13 0.15 0.14 0.20 0.17 0.34 0.26 0.27 0.61 0.68 1.66 1.30 1.74 1.48 1.80 2.35 2.60 2.49 2.62 2.52 3.02 2.37 2.56 2.25 2.86 1.86 2.46 2.87 2.37 2.60 1.75 3.43 3.06 2.91 3.73 2.80 1.84 1.62 1.23 1.20 0.92 0.79 0.86 1.15 1.00 1.15 1.35 1.37 2.30 1.71 1.30 0.99 1.31 2.50 1.87 1.76 2.19 2.00 1.97 2.54 1.96 2.46 1.65 2.26 1.97 1.44 1.24 1.10 1.25 0.99 0.87 1.00 0.69 0.88 0.69 0.49
0.00 0.00 0.00 0.00 0.00 0.00 0.00 0.00 0.00 0.00 0.00 0.00 0.00 0.00 0.01 0.01 0.03 0.04 0.01 0.05 0.07 0.31 0.22 0.41 0.36 0.24 0.35 0.26 0.96 0.53 0.42 0.78 1.30 1.12 1.82 1.66 1.76 1.59 1.31 2.13 2.30 2.18 2.26 2.21 2.66 2.45 3.30 3.49 3.41 3.26 2.09 2.41 3.23 4.39 3.69 3.71 2.84 1.45 1.81 1.81 1.68 1.04 0.95 0.95 1.07 1.50 1.34 1.28 1.44 2.19 1.42 1.66 2.67 1.76 2.50 2.75 2.09 1.59 1.89 1.50 2.25 3.05 2.55 2.25 2.20 2.29 1.48 0.99 1.16 1.03 1.41 1.29 0.70 0.57 0.88 1.25 0.64
0.00 0.00 0.00 0.00 0.00 0.01 0.00 0.00 0.00 0.00 0.00 0.00 0.00 0.01 0.01 0.03 0.04 0.09 0.12 0.04 0.06 0.11 0.27 0.39 0.19 0.41 0.66 0.54 1.06 0.64 0.68 0.78 0.87 1.53 1.38 1.37 0.76 1.39 1.76 1.95 2.03 1.93 2.39 3.22 3.46 2.97 3.03 3.62 3.90 3.00 3.15 3.04 4.23 4.78 3.07 3.37 3.35 2.92 2.80 2.09 1.60 1.80 2.21 1.80 0.92 1.16 1.09 1.27 1.63 1.84 1.27 1.86 1.63 2.03 2.58 1.64 2.06 2.67 1.96 2.52 2.52 2.50 2.51 1.55 1.33 1.30 1.06 1.14 2.28 0.99 1.26 1.34 1.34 1.03 0.71 1.07 0.75
0.00 0.00 0.01 0.00 0.00 0.00 0.00 0.00 0.00 0.00 0.00 0.00 0.00 0.00 0.00 0.00 0.01 0.11 0.40 0.20 0.09 0.10 0.17 0.13 0.25 0.56 0.77 1.84 0.99 0.98 1.19 0.91 1.27 1.76 0.95 0.51 1.02 1.17 1.44 1.58 2.29 2.16 2.09 2.73 2.28 3.06 3.58 3.83 3.09 3.09 4.41 4.63 4.88 4.03 3.26 4.01 3.83 3.27 2.85 2.66 1.91 1.66 2.16 1.72 1.27 0.92 0.80 1.22 1.10 1.05 1.48 1.69 1.84 2.37 1.47 1.18 1.94 2.34 2.03 1.68 2.66 2.58 1.47 1.83 1.74 1.38 1.27 1.05 1.39 1.49 2.25 1.43 1.49 1.36 1.39 1.28 1.78
0.03 0.01 0.02 0.00 0.00 0.00 0.00 0.00 0.00 0.00 0.00 0.00 0.00 0.00 0.00 0.01 0.00 0.02 0.01 0.04 0.07 0.11 0.17 0.25 0.38 0.76 1.58 1.25 1.02 1.52 1.18 0.99 1.25 0.87 0.72 1.15 1.72 2.00 2.04 1.92 1.84 2.02 2.55 2.49 2.85 3.49 3.80 2.96 3.02 3.35 3.94 4.92 5.62 3.99 3.90 3.38 2.89 2.44 1.86 1.95 1.59 1.52 1.69 1.50 1.10 0.68 0.70 0.91 1.12 1.57 0.97 1.48 1.31 1.31 0.99 1.38 1.54 1.39 1.68 1.77 2.77 2.15 1.71 1.96 1.58 1.58 1.21 1.20 1.21 2.19 2.43 2.94 2.35 1.57 1.79 1.54 2.32
0.01 0.02 0.03 0.01 0.01 0.00 0.00 0.00 0.00 0.00 0.00 0.00 0.00 0.00 0.00 0.00 0.01 0.00 0.04 0.04 0.04 0.09 0.27 0.78 0.80 0.53 0.67 1.07 1.42 0.99 0.67 1.05 0.90 1.10 1.02 1.29 1.93 1.39 1.83 1.57 2.05 2.69 2.40 2.70 2.56 3.15 3.91 3.61 4.99 3.99 3.69 4.45 5.41 4.05 4.15 3.71 2.88 2.31 2.14 2.01 1.76 1.68 1.36 1.01 0.87 0.92 0.65 0.81 0.86 1.08 0.83 0.89 0.71 1.34 1.39 1.56 1.51 1.45 1.27 1.05 1.57 1.76 2.12 1.73 1.92 1.72 2.21 1.76 1.71 2.13 1.85 2.05 2.47 2.03 1.52 1.78 2.02
0.00 0.00 0.01 0.00 0.00 0.01 0.00 0.00 0.00 0.00 0.00 0.00 0.00 0.00 0.00 0.00 0.00 0.01 0.01 0.06 0.10 0.22 0.49 0.32 0.33 0.61 1.42 1.79 0.79 0.99 1.14 2.05 1.68 1.54 1.69 2.44 2.90 2.18 1.78 1.57 1.41 1.88 2.52 1.91 2.36 2.81 2.54 2.37 3.87 3.42 4.54 4.23 4.63 3.63 2.69 3.15 2.61 2.69 2.67 2.32 2.13 1.90 1.50 1.48 1.04 0.97 0.81 1.45 0.69 1.02 1.19 1.06 0.84 1.58 1.32 1.60 1.11 1.53 1.27 1.03 1.17 1.19 1.50 1.74 2.07 1.91 1.60 2.07 1.81 2.03 1.20 1.35 1.85 2.69 2.14 1.56 2.29
0.00 0.01 0.00 0.01 0.00 0.00 0.01 0.01 0.00 0.00 0.00 0.00 0.00 0.00 0.00 0.00 0.00 0.00 0.01 0.04 0.12 0.10 0.27 0.23 0.43 0.76 1.44 0.88 0.71 0.53 0.59 0.45 1.12 2.10 2.26 1.99 1.70 1.86 2.28 1.90 1.55 2.56 2.79 1.91 2.32 3.31 3.09 3.44 2.76 3.59 3.02 2.99 3.26 2.73 2.98 3.46 3.70 3.13 3.35 3.17 2.38 2.15 1.99 1.41 1.17 1.09 1.00 0.90 1.11 1.33 0.86 1.09 0.92 1.42 1.62 1.63 1.92 2.09 1.49 1.22 1.15 1.17 0.96 1.37 1.94 1.25 1.74 2.32 1.85 2.08 2.03 1.84 2.36 2.60 2.11 1.86 2.74
0.00 0.00 0.01 0.03 0.03 0.01 0.02 0.00 0.00 0.00 0.00 0.01 0.00 0.01 0.00 0.00 0.00 0.00 0.02 0.02 0.05 0.05 0.15 0.31 0.62 1.35 0.93 0.53 0.48 0.59 0.56 0.70 0.89 1.02 1.03 1.08 1.46 2.22 1.85 1.52 1.26 1.98 2.30 2.00 2.34 2.81 3.44 3.49 2.95 2.87 1.88 1.86 1.92 1.66 2.32 2.54 2.71 3.56 3.12 3.16 2.08 2.60 1.89 1.74 1.82 1.37 1.57 1.03 1.58 1.33 1.16 1.14 0.98 1.53 1.46 1.71 2.18 2.31 1.80 1.51 1.68 1.60 1.26 1.49 1.14 1.22 0.99 2.39 2.52 2.82 2.13 2.39 2.84 2.04 1.85 2.46 2.10
0.01 0.03 0.01 0.07 0.04 0.02 0.09 0.00 0.00 0.00 0.00 0.01 0.01 0.01 0.01 0.00 0.00 0.00 0.02 0.02 0.08 0.10 0.19 0.51 1.02 0.24 0.52 0.93 0.94 0.58 0.20 0.50 1.47 1.24 1.41 1.19 1.79 2.33 1.61 1.44 1.33 1.23 2.30 3.00 3.00 3.33 3.03 3.09 3.91 2.04 1.90 1.59 2.09 2.26 2.66 2.71 2.85 2.57 2.28 2.63 2.68 2.81 2.23 2.54 2.17 1.73 1.77 1.65 1.99 1.97 1.43 1.02 1.16 1.31 1.38 1.23 1.13 1.76 1.88 1.51 1.68 1.61 1.47 1.05 1.14 1.61 1.55 1.30 1.55 2.41 2.04 2.15 1.82 2.81 1.45 2.16 3.21
0.04 0.02 0.01 0.05 0.02 0.03 0.00 0.14 0.00 0.00 0.00 0.00 0.00 0.00 0.01 0.00 0.00 0.00 0.00 0.02 0.08 0.37 0.66 0.98 0.71 0.88 0.89 0.63 0.46 0.53 0.71 1.22 0.87 1.47 1.93 1.23 1.47 1.73 1.59 1.72 1.80 1.78 2.12 2.23 3.11 3.31 2.87 3.53 3.59 3.03 2.13 2.29 3.97 2.48 2.48 2.53 2.22 1.92 1.64 2.03 2.02 2.16 1.86 1.83 1.53 1.66 1.33 1.42 1.18 1.44 1.39 0.86 1.09 1.34 1.52 1.34 0.96 1.57 1.94 1.60 1.27 1.76 1.59 1.72 1.01 1.01 1.24 1.30 0.93 1.09 1.65 1.96 1.68 1.93 2.13 2.08 2.14
0.07 0.00 0.01 0.01 0.01 0.00 0.00 0.01 0.00 0.00 0.02 0.00 0.00 0.05 0.03 0.02 0.01 0.09 0.11 0.01 0.14 0.33 0.22 0.30 0.50 1.10 1.18 0.86 0.81 0.76 0.77 1.03 1.52 0.85 0.79 1.44 1.32 1.71 2.06 1.89 1.55 2.24 2.43 2.35 2.34 2.41 2.39 2.58 3.02 3.07 2.90 2.40 2.78 2.84 3.09 2.81 2.53 1.69 1.22 1.16 1.29 1.54 1.53 1.03 1.19 1.16 1.05 1.02 0.91 0.96 1.08 0.96 1.37 1.73 1.27 1.36 1.32 1.24 1.83 1.10 1.24 1.73 1.75 2.30 1.50 1.01 1.26 1.68 1.32 1.38 1.27 1.54 1.98 1.81 1.65 1.57 2.48
0.04 0.21 0.01 0.00 0.00 0.00 0.00 0.01 0.00 0.06 0.12 0.14 0.00 0.03 0.12 0.02 0.04 0.04 0.06 0.08 0.07 0.38 0.26 0.25 0.27 0.19 0.59 0.48 0.44 0.27 0.28 0.59 0.97 0.96 0.93 0.87 0.99 1.19 1.26 1.67 1.38 1.76 2.11 3.63 2.98 1.87 2.67 3.08 2.63 3.79 4.37 4.21 4.70 3.67 3.88 2.69 1.84 1.42 1.44 1.84 1.38 1.06 1.24 1.26 1.33 1.29 1.41 1.39 1.60 2.37 1.45 1.27 1.29 1.16 1.46 0.96 0.97 0.74 1.42 1.22 1.41 1.21 1.40 1.65 0.89 1.06 1.28 0.85 0.67 0.78 1.55 1.70 1.47 2.02 1.45 1.96 1.69
0.13 0.02 0.00 0.00 0.00 0.00 0.02 0.00 0.02 0.11 0.01 0.01 0.00 0.01 0.09 0.17 0.16 0.06 0.06 0.09 0.18 0.43 0.33 0.37 0.35 0.34 0.28 0.36 0.50 0.65 0.58 0.62 0.48 0.61 0.61 0.72 0.59 0.71 1.35 1.48 1.61 1.45 1.82 2.85 3.04 3.38 2.90 2.85 3.33 4.44 5.06 3.48 4.09 4.59 3.69 2.85 1.59 1.20 1.32 1.67 1.89 1.73 1.74 1.44 1.40 1.36 1.64 1.39 1.15 1.67 1.42 1.39 1.02 0.85 0.95 0.83 0.70 0.96 0.64 1.10 1.27 0.89 1.00 1.31 0.99 0.68 0.99 1.18 0.90 1.27 1.58 1.39 1.48 1.47 1.38 1.30 0.92
0.12 0.01 0.00 0.01 0.00 0.04 0.01 0.03 0.03 0.06 0.02 0.34 0.06 0.02 0.03 0.07 0.26 0.13 0.10 0.18 0.32 0.32 0.39 0.57 0.31 0.37 0.34 0.39 0.38 0.80 0.71 0.59 0.41 0.55 0.85 0.74 0.75 0.94 2.41 1.94 1.39 2.29 3.08 3.32 4.10 3.44 3.84 3.41 3.95 3.76 3.17 4.00 3.94 3.60 2.17 1.38 1.57 1.66 3.18 1.80 1.84 1.75 1.16 1.25 1.57 1.20 1.50 1.25 1.26 1.30 0.98 1.11 0.82 0.65 0.85 1.02 0.72 0.64 0.70 0.97 0.75 0.68 0.75 0.68 0.68 0.65 0.66 1.05 1.15 1.12 1.45 1.43 1.79 1.25 1.20 1.68 1.37
0.02 0.00 0.00 0.00 0.00 0.01 0.01 0.03 0.03 0.11 0.01 0.09 0.19 0.22 0.11 0.25 0.31 0.29 0.14 0.17 0.34 0.43 0.41 0.31 0.42 0.56 0.43 0.43 0.55 0.55 0.67 0.56 0.53 0.66 0.42 0.51 0.84 1.17 1.11 1.38 2.12 1.52 3.01 3.97 4.45 4.05 4.29 4.31 4.36 2.88 2.22 3.68 2.63 1.71 1.38 2.23 2.71 3.04 2.28 1.84 1.49 1.54 1.61 1.35 1.35 1.14 1.02 1.14 1.23 0.91 0.79 0.84 1.10 1.33 1.25 1.09 0.70 0.68 0.52 0.56 0.75 0.60 0.38 0.50 0.61 0.77 0.70 1.36 1.44 1.27 1.71 1.56 1.21 1.32 1.22 1.44 1.25
0.00 0.01 0.01 0.01 0.02 0.05 0.02 0.00 0.06 0.13 0.07 0.05 0.05 0.04 0.12 0.39 0.41 0.51 0.33 0.63 0.27 0.43 0.38 0.48 0.46 0.55 0.82 0.38 0.50 0.57 0.63 0.72 0.73 0.91 1.16 1.14 1.28 1.77 1.60 2.02 2.92 2.65 3.72 4.96 5.10 4.73 5.68 5.44 4.79 2.41 2.13 2.52 2.26 2.31 1.78 2.54 3.93 2.81 1.93 1.86 1.67 1.51 0.99 0.96 0.95 1.03 1.10 1.30 1.33 0.78 0.95 1.27 1.41 0.92 0.89 1.50 1.00 0.75 0.52 0.71 0.52 0.66 0.61 0.41 0.48 0.66 1.09 1.39 1.41 0.89 0.97 1.45 1.77 1.20 1.16 1.29 0.95
0.01 0.02 0.07 0.08 0.07 0.02 0.02 0.08 0.08 0.12 0.07 0.08 0.11 0.07 0.16 0.22 0.84 0.34 0.19 0.53 0.57 0.58 0.41 0.50 0.60 0.49 0.73 0.46 0.46 0.68 0.70 0.73 0.76 0.75 1.09 1.32 1.93 2.95 2.73 2.27 2.90 3.79 5.13 4.52 5.27 5.76 5.83 5.19 3.18 3.07 2.89 2.64 3.40 3.08 3.11 3.94 3.62 2.10 1.85 2.43 2.14 1.75 1.60 1.15 0.99 1.03 1.06 1.17 1.20 1.37 1.06 1.16 0.92 0.78 1.01 1.70 0.90 0.74 0.52 0.33 0.28 0.38 0.43 0.40 0.52 0.90 0.99 0.92 1.04 1.49 1.40 1.70 1.70 1.76 1.39 1.06 1.18
0.00 0.04 0.13 0.21 0.36 0.14 0.36 0.17 0.15 0.05 0.14 0.15 0.01 0.03 0.12 0.09 0.55 0.41 0.29 0.32 0.79 0.85 0.95 0.71 0.70 0.65 0.70 0.76 0.39 0.45 0.65 0.78 0.84 0.97 1.50 1.66 1.75 1.18 1.76 3.04 2.88 2.88 3.21 5.11 6.10 4.85 5.09 4.57 4.50 2.84 2.96 4.40 5.17 3.17 3.04 2.57 3.18 2.53 2.98 3.18 2.95 2.82 2.00 1.73 1.71 1.11 1.60 1.70 1.63 1.61 1.57 1.11 1.02 0.99 0.75 1.37 1.37 1.16 0.70 0.31 0.27 0.23 0.30 0.35 0.44 0.73 0.86 0.80 1.06 1.71 1.44 1.92 1.84 1.67 1.44 1.76 1.75
0.02 0.12 0.28 0.23 0.35 0.29 0.18 0.31 0.15 0.29 0.14 0.08 0.08 0.03 0.12 0.65 0.42 0.37 0.90 0.34 0.59 0.99 0.92 0.96 0.87 1.15 0.86 0.58 0.58 0.54 0.57 1.21 2.14 1.92 1.75 1.56 1.53 1.46 1.46 1.72 2.21 2.58 2.86 3.98 3.79 2.71 3.45 4.65 5.65 5.03 4.42 5.43 5.57 4.39 3.17 3.77 4.34 3.77 3.81 4.02 4.27 3.10 2.97 2.44 2.59 2.43 2.72 1.83 1.80 1.23 1.19 1.22 1.42 1.21 1.32 1.20 1.33 0.88 1.00 0.64 0.73 0.54 0.41 0.39 0.44 0.88 1.02 1.08 1.26 1.24 1.28 1.67 1.49 1.39 1.06 1.11 1.03
0.09 0.03 0.04 0.37 0.40 0.33 0.35 0.34 0.37 0.26 0.50 0.26 0.08 0.07 0.15 0.29 1.45 0.32 0.65 0.76 0.73 1.26 1.30 1.34 1.16 0.87 0.82 0.54 0.54 0.60 1.35 1.05 1.47 1.45 0.83 1.38 1.66 1.63 1.60 1.67 1.59 2.01 2.01 1.55 1.99 2.75 3.10 4.70 4.65 5.08 4.49 4.30 3.86 4.20 3.19 2.93 2.16 2.48 3.79 4.87 4.66 3.82 2.11 2.80 2.59 2.26 2.35 2.01 2.39 1.85 1.51 1.64 1.16 1.14 0.96 1.09 1.63 1.11 0.70 1.08 0.98 0.79 0.58 0.62 0.81 1.21 0.92 0.85 1.48 1.40 1.42 1.24 1.56 1.18 1.31 1.28 1.34
0.12 0.09 0.06 0.18 0.48 0.22 0.36 0.72 0.29 0.38 0.40 0.28 0.23 0.14 0.68 0.87 1.12 0.69 0.51 0.93 1.91 2.57 2.47 2.14 1.34 1.20 0.63 0.61 0.68 1.43 1.34 1.03 0.91 0.91 1.10 0.89 0.71 1.18 1.25 1.33 1.45 1.58 1.35 1.51 1.60 3.15 3.19 3.70 4.15 5.07 3.92 3.19 3.26 2.27 1.91 2.86 3.22 3.26 3.59 2.71 2.83 2.67 2.68 2.70 2.64 2.60 3.14 2.97 3.04 2.89 2.24 1.67 1.15 0.89 1.06 0.93 1.25 1.19 1.45 2.39 1.34 1.47 1.40 1.78 2.32 0.82 0.94 1.67 1.84 2.05 1.78 1.63 2.01 1.81 1.88 1.96 1.29
0.80 0.04 0.20 0.37 0.13 0.15 0.09 0.03 0.04 0.03 0.03 0.09 0.03 0.22 0.31 0.24 1.06 0.75 2.11 2.50 1.66 2.10 2.44 2.27 2.20 2.10 1.85 1.80 1.94 1.84 1.28 1.47 1.28 1.34 1.39 1.16 1.65 1.87 2.33 2.31 1.97 2.90 1.88 2.31 3.88 2.80 3.00 3.65 3.60 3.21 3.43 2.98 3.91 2.24 2.51 4.32 3.71 4.30 3.10 2.81 3.05 3.10 3.00 2.10 2.52 2.65 2.87 3.11 2.77 2.39 2.34 1.54 1.38 1.28 1.31 1.50 1.23 1.28 2.21 1.51 1.34 1.17 1.42 1.79 1.86 1.53 1.79 1.73 2.48 3.24 1.90 1.89 1.64 2.08 2.67 2.15 1.20
0.21 0.25 0.35 0.04 0.04 0.12 0.21 0.56 0.29 0.14 0.20 0.20 0.16 0.17 0.61 0.25 1.11 1.02 1.05 2.01 2.32 1.94 1.72 2.56 2.15 1.90 2.00 2.08 1.40 1.43 1.88 1.78 1.28 0.86 1.67 1.48 1.56 2.07 2.57 2.38 1.78 2.30 1.89 1.49 1.13 1.24 2.09 3.93 3.04 2.92 3.29 2.91 2.52 2.79 2.75 3.25 1.93 1.48 1.46 2.03 2.18 2.21 1.98 2.94 3.01 3.00 3.81 3.80 3.09 2.95 2.51 2.77 2.05 1.53 1.29 1.43 1.44 1.36 1.91 2.25 1.26 2.92 2.49 1.26 1.25 1.11 1.73 1.73 3.21 2.31 1.49 1.53 1.87 1.89 1.89 1.80 2.18
0.04 0.32 0.22 0.09 0.93 0.35 0.15 0.04 0.23 0.15 0.10 0.19 0.26 0.27 0.40 0.55 1.57 1.28 1.31 1.28 1.83 1.42 1.50 1.08 1.31 1.72 2.24 2.35 2.44 2.11 1.44 0.85 0.93 1.07 1.38 2.66 2.74 2.51 2.07 2.08 3.31 2.39 1.72 1.05 1.18 0.92 0.87 2.72 3.26 3.13 2.96 2.61 3.13 2.29 2.26 2.08 1.68 1.60 1.26 1.28 1.48 2.06 2.66 2.71 2.54 2.34 2.82 2.40 3.07 2.92 1.90 2.01 1.93 1.81 1.95 1.52 1.44 1.54 1.58 1.90 2.31 1.80 1.68 1.83 1.65 2.57 1.77 1.55 2.04 1.65 1.53 2.31 2.22 1.90 1.44 0.95 0.86
0.01 0.02 0.22 0.03 0.11 0.35 0.59 0.22 0.26 0.15 0.38 0.15 0.30 0.27 0.53 0.74 1.11 1.36 1.28 1.63 1.34 0.73 0.67 0.72 0.78 1.00 1.08 1.33 1.28 1.08 0.68 0.54 0.96 1.76 3.41 2.76 1.87 1.54 1.33 1.44 1.35 1.38 1.18 1.24 1.12 1.02 1.41 1.56 1.55 2.62 1.90 1.80 2.32 2.42 2.37 2.51 3.04 2.02 1.55 1.91 1.15 1.72 2.50 2.03 2.00 1.68 1.75 1.96 2.57 2.71 2.23 1.88 1.83 1.74 2.09 1.46 1.71 2.34 2.67 1.37 1.03 1.34 2.62 1.82 1.94 1.67 2.09 1.83 2.05 2.08 2.01 1.38 1.62 1.54 1.40 0.98 0.62
0.46 0.11 0.12 0.18 0.15 0.16 0.13 0.45 0.14 0.34 0.38 0.20 0.26 0.29 0.95 0.98 0.48 0.90 0.98 0.87 1.09 1.05 0.65 0.74 0.71 0.60 0.85 0.96 1.34 1.00 0.81 0.96 1.73 2.50 2.21 2.48 2.45 2.06 1.16 1.32 1.10 1.27 1.86 1.31 1.34 1.63 1.43 1.72 1.92 1.43 1.06 1.50 1.48 1.32 1.30 1.50 0.95 2.03 1.73 1.64 1.72 2.58 2.68 2.27 2.35 2.30 1.89 1.67 2.30 1.79 2.05 2.20 2.01 1.84 1.44 1.47 1.71 1.80 2.15 1.40 2.43 1.82 1.83 1.76 1.09 1.19 1.80 1.53 1.40 1.26 1.26 1.68 2.03 1.32 1.09 1.12 1.04
0.37 0.37 0.59 0.42 0.53 0.66 0.50 0.46 0.05 0.18 0.15 0.19 0.14 0.41 0.75 1.07 0.37 0.82 0.66 0.49 0.39 0.60 0.88 0.72 1.13 0.98 1.72 1.42 1.26 1.55 2.66 2.99 2.38 1.92 1.69 1.73 1.56 1.49 1.03 1.11 1.28 1.46 1.61 1.39 1.01 2.18 1.96 2.52 2.16 1.48 1.10 0.85 0.65 1.94 1.30 1.09 1.83 1.86 1.34 2.07 1.84 1.90 1.77 2.45 2.46 2.14 1.77 2.28 2.26 1.96 1.79 2.24 2.13 2.09 1.95 1.40 1.32 2.04 2.49 1.34 2.07 2.00 1.97 1.36 1.80 1.49 1.25 1.61 1.62 1.25 1.90 1.78 1.86 1.16 1.03 0.95 0.86